STARLINK-11502 [DTC] (62474 NORAD) Tracking and Keplerian Element Data

This shows tracking and keplerian element data for the satellite.

Feedback or suggestion? Click here.




ElementValue
Catalog62474
NameSTARLINK-11502 [DTC]
Epoch Orbit598
Epoch Day34.66670139
Epoch Year2025
RAAN109.1122
Inclination43.0024
Eccentricity0.0001337
Argument of Perigee299.2446
Mean Anonmoly93.6826
Mean Motion15.77831039
Decay Rate0.00087897
L11 62474U 24254N 25034.66670139 .00087897 00000+0 50333-3 0 9997
L22 62474 43.0024 109.1122 0001337 299.2446 93.6826 15.77831039 5984



Live tracking and technical data element details for STARLINK-11502 [DTC] (NORAD 62474). STARLINK-11502 [DTC] can be tracked NOW for your location showing map with azimuth and elevation plus other details from your city location.







IsCatalogInMostPopularTable: catalog: 62474, numindb: 15
Update: records affected: 1



GetName: 62474 STARLINK-11502 [DTC]

Hit Count: updated at: Sat, 24 May 2025 17:10:18 GMT